Latest Coastal Weather Observations for Bougainville Reef

IDQ60701

Issued at 11:51 pm EST Saturday 27 May 2017 (issued every 10 minutes, with the page automatically refreshed every 10 minutes)

About coastal observations | Map of coastal stations | Coastal observations for QLD | Marine services | Other Formats
Station Details ID: 200840 Name: BOUGAINVILLE REEF Lat: -15.49 Lon: 147.12 Height: 0.0 m
Data from the previous 72 hours. | See also: Recent months for locations in Queensland
Date/Time
EST
Temp
°C
Wind Pressure Rain since
9am
mm
Weather Cloud Vis
km
Sea
Height
m
Swell
Dir  Spd
kts
Gust
kts
hPa Trend Height
m
Period
s
Dir
27/11:30pm 25.8 ESE 20 22 1015.7 - - - - - - - - -
27/11:00pm 25.8 ESE 18 23 1015.8 - - - - - - - - -
27/10:30pm 26.0 ESE 20 24 1016.0 - - - - - - - - -
27/10:00pm 25.8 SE 20 22 1015.8 - - - - - - - - -
27/09:30pm 25.8 SE 19 23 1015.9 - - - - - - - - -
27/09:00pm 26.0 SE 18 21 1015.6 - - - - - - - - -
27/08:30pm 25.8 SE 20 23 1015.5 - - - - - - - - -
27/08:00pm 26.0 SE 19 22 1015.1 - - - - - - - - -
27/07:30pm 25.9 SE 20 23 1014.9 - - - - - - - - -
27/07:00pm 25.8 SE 19 22 1014.5 - - - - - - - - -
27/06:30pm 25.9 SE 18 21 1014.3 - - - - - - - - -
27/06:00pm 25.9 SE 17 19 1014.0 - - - - - - - - -
27/05:30pm 25.8 SE 17 20 1013.9 - - - - - - - - -
27/05:00pm 26.1 SE 16 19 1013.5 - - - - - - - - -
27/04:30pm 25.8 SE 17 21 1013.5 - - - - - - - - -
27/04:00pm 25.8 SE 18 19 1013.1 - - - - - - - - -
27/03:30pm 25.8 SE 17 19 1013.2 - - - - - - - - -
27/03:00pm 25.9 SE 16 18 1013.1 - - - - - - - - -
27/02:30pm 26.0 SE 16 19 1013.2 - - - - - - - - -
27/02:00pm 26.1 SE 17 18 1013.3 - - - - - - - - -
27/01:30pm 25.9 SE 17 19 1013.6 - - - - - - - - -
27/01:00pm 25.9 SE 17 19 1014.0 - - - - - - - - -
27/12:30pm 25.9 SE 18 21 1014.4 - - - - - - - - -
27/12:00pm 26.0 ESE 17 19 1014.7 - - - - - - - - -
27/11:30am 26.0 SE 18 20 1015.0 - - - - - - - - -
27/11:00am 26.0 SE 18 20 1015.1 - - - - - - - - -
27/10:30am 26.0 SE 19 22 1015.5 - - - - - - - - -
27/10:00am 26.0 SE 19 22 1015.5 - - - - - - - - -
27/09:30am 26.0 SE 20 23 1015.5 - - - - - - - - -
27/09:00am 25.8 ESE 22 25 1015.1 - - - - - - - - -
27/08:30am 25.9 SE 22 25 1015.0 - - - - - - - - -
27/08:00am 26.0 ESE 23 26 1014.5 - - - - - - - - -
27/07:30am 26.3 ESE 23 27 1014.5 - - - - - - - - -
27/07:00am 25.9 ESE 23 27 1014.0 - - - - - - - - -
27/06:30am 25.9 ESE 22 25 1014.0 - - - - - - - - -
27/06:00am 25.9 ESE 21 23 1013.6 - - - - - - - - -
27/05:30am 26.0 ESE 21 24 1013.6 - - - - - - - - -
27/05:00am 25.9 ESE 22 27 1013.2 - - - - - - - - -
27/04:30am 25.8 ESE 22 26 1013.2 - - - - - - - - -
27/04:00am 25.8 ESE 22 25 1013.3 - - - - - - - - -
27/03:30am 25.6 ESE 24 27 1013.4 - - - - - - - - -
27/03:00am 26.1 SE 22 25 1013.5 - - - - - - - - -
27/02:30am 26.0 SE 21 25 1013.9 - - - - - - - - -
27/02:00am 26.3 SE 24 26 1014.1 - - - - - - - - -
27/01:30am 26.3 SE 23 28 1014.4 - - - - - - - - -
27/01:00am 26.2 ESE 23 26 1014.6 - - - - - - - - -
27/12:30am 26.2 SE 22 26 1014.6 - - - - - - - - -
27/12:00am 26.2 SE 23 27 1014.5 - - - - - - - - -
 
Date/Time
EST
Temp
°C
Wind Pressure Rain since
9am
mm
Weather Cloud Vis
km
Sea
Height
m
Swell
Dir  Spd
kts
Gust
kts
hPa Trend Height
m
Period
s
Dir
26/11:30pm 26.2 SE 23 27 1014.6 - - - - - - - - -
26/11:00pm 26.3 SE 24 26 1014.6 - - - - - - - - -
26/10:30pm 26.4 SE 24 28 1014.8 - - - - - - - - -
26/10:00pm 26.3 SE 25 27 1014.8 - - - - - - - - -
26/09:30pm 26.2 ESE 23 27 1015.0 - - - - - - - - -
26/09:00pm 26.3 SE 24 29 1014.7 - - - - - - - - -
26/08:30pm 25.5 SE 26 30 1014.8 - - - - - - - - -
26/08:00pm 25.8 SE 22 26 1014.3 - - - - - - - - -
26/07:30pm 24.7 SE 21 29 1014.2 - - - - - - - - -
26/07:20pm 24.9 ESE 23 26 1014.1 - - - - - - - - -
26/07:16pm 24.7 SSE 20 26 1014.1 - - - - - - - - -
26/07:00pm 24.9 ESE 23 27 1013.8 - - - - - - - - -
26/06:30pm 25.4 ESE 24 28 1013.6 - - - - - - - - -
26/06:00pm 25.1 ESE 23 27 1013.0 - - - - - - - - -
26/05:44pm 25.4 ESE 23 29 1013.1 - - - - - - - - -
26/05:30pm 26.2 SE 23 26 1013.0 - - - - - - - - -
26/05:00pm 26.2 SE 23 26 1012.4 - - - - - - - - -
26/04:30pm 26.1 SE 22 27 1012.3 - - - - - - - - -
26/04:00pm 26.1 SE 23 27 1012.2 - - - - - - - - -
26/03:30pm 26.0 ESE 23 28 1012.2 - - - - - - - - -
26/03:00pm 26.2 SE 24 27 1012.1 - - - - - - - - -
26/02:30pm 26.0 ESE 25 28 1012.3 - - - - - - - - -
26/02:00pm 26.2 SE 25 28 1012.6 - - - - - - - - -
26/01:30pm 26.0 SE 25 29 1012.8 - - - - - - - - -
26/01:00pm 26.2 ESE 24 29 1013.4 - - - - - - - - -
26/12:30pm 26.0 ESE 25 29 1013.8 - - - - - - - - -
26/12:00pm 26.2 SE 25 27 1014.3 - - - - - - - - -
26/11:30am 26.1 ESE 25 27 1014.4 - - - - - - - - -
26/11:00am 26.1 ESE 24 29 1014.7 - - - - - - - - -
26/10:30am 26.2 ESE 24 28 1015.0 - - - - - - - - -
26/10:00am 26.2 ESE 25 28 1014.9 - - - - - - - - -
26/09:30am 26.0 ESE 25 30 1015.0 - - - - - - - - -
26/09:00am 26.0 ESE 25 29 1014.7 - - - - - - - - -
26/08:30am 25.9 ESE 26 29 1014.5 - - - - - - - - -
26/08:00am 25.9 SE 26 29 1014.1 - - - - - - - - -
26/07:30am 26.0 SE 24 29 1014.0 - - - - - - - - -
26/07:00am 25.8 SE 24 27 1013.6 - - - - - - - - -
26/06:30am 25.9 SE 23 28 1013.4 - - - - - - - - -
26/06:00am 25.8 SE 24 27 1013.1 - - - - - - - - -
26/05:30am 25.9 SE 25 29 1013.1 - - - - - - - - -
26/05:00am 25.7 SE 24 30 1012.6 - - - - - - - - -
26/04:30am 25.8 SE 26 30 1012.7 - - - - - - - - -
26/04:00am 25.8 SE 25 30 1012.6 - - - - - - - - -
26/03:30am 26.0 SE 26 30 1012.8 - - - - - - - - -
26/03:00am 25.9 SE 25 30 1012.9 - - - - - - - - -
26/02:30am 26.0 SE 26 31 1013.1 - - - - - - - - -
26/02:00am 25.7 SE 25 30 1013.4 - - - - - - - - -
26/01:30am 25.8 SE 27 31 1013.6 - - - - - - - - -
26/01:00am 25.8 SE 26 32 1013.8 - - - - - - - - -
26/12:30am 25.9 SE 27 30 1014.0 - - - - - - - - -
26/12:00am 26.0 SE 26 32 1014.0 - - - - - - - - -
 
Date/Time
EST
Temp
°C
Wind Pressure Rain since
9am
mm
Weather Cloud Vis
km
Sea
Height
m
Swell
Dir  Spd
kts
Gust
kts
hPa Trend Height
m
Period
s
Dir
25/11:30pm 26.0 SE 27 31 1014.0 - - - - - - - - -
25/11:00pm 26.1 SE 26 33 1014.1 - - - - - - - - -
25/10:30pm 25.5 SE 23 29 1014.4 - - - - - - - - -
25/10:06pm 24.7 SE 24 34 1014.6 - - - - - - - - -
25/10:00pm 23.5 ESE 25 34 1014.7 - - - - - - - - -
25/09:56pm 24.3 SE 28 33 1014.6 - - - - - - - - -
25/09:30pm 23.8 E 21 27 1014.8 - - - - - - - - -
25/09:00pm 23.5 ESE 17 22 1014.8 - - - - - - - - -
25/08:30pm 23.2 ESE 19 27 1015.0 - - - - - - - - -
25/08:00pm 23.1 E 17 22 1014.5 - - - - - - - - -
25/07:30pm 23.7 ESE 20 28 1014.2 - - - - - - - - -
25/07:02pm 23.6 SE 22 32 1014.2 - - - - - - - - -
25/07:00pm 24.5 SE 21 32 1013.7 - - - - - - - - -
25/06:30pm 24.0 SSE 21 25 1013.7 - - - - - - - - -
25/06:17pm 23.1 SSE 27 37 1013.7 - - - - - - - - -
25/06:00pm 24.1 SSE 24 36 1013.2 - - - - - - - - -
25/05:30pm 24.1 SSE 27 31 1013.0 - - - - - - - - -
25/05:00pm 24.6 SSE 25 25 1012.7 - - - - - - - - -
25/04:30pm 25.5 SE 24 26 1012.6 - - - - - - - - -
25/04:00pm 25.4 SE 25 32 1012.4 - - - - - - - - -
25/03:30pm 25.3 SSE 22 25 1012.4 - - - - - - - - -
25/03:00pm 25.0 SE 20 23 1012.4 - - - - - - - - -
25/02:30pm 24.7 SSE 23 27 1012.6 - - - - - - - - -
25/02:00pm 25.3 SE 22 25 1012.7 - - - - - - - - -
25/01:30pm 25.2 SE 22 26 1013.2 - - - - - - - - -
25/01:00pm 25.9 SE 22 26 1013.7 - - - - - - - - -
25/12:30pm 25.9 SE 22 25 1014.0 - - - - - - - - -
25/12:00pm 24.1 ESE 16 20 1014.5 - - - - - - - - -
25/11:34am 22.5 E 19 36 1014.9 - - - - - - - - -
25/11:30am 22.0 E 31 36 1015.0 - - - - - - - - -
25/11:29am 22.4 E 31 36 1014.9 - - - - - - - - -
25/11:24am 23.8 E 19 30 1014.9 - - - - - - - - -
25/11:00am 24.3 ESE 23 24 1014.9 - - - - - - - - -
25/10:30am 24.5 ESE 30 35 1015.1 - - - - - - - - -
25/10:29am 24.3 ESE 30 35 1015.0 - - - - - - - - -
25/10:24am 24.5 SE 17 29 1015.2 - - - - - - - - -
25/10:00am 23.7 ESE 26 31 1015.2 - - - - - - - - -
25/09:46am 24.1 ESE 22 35 1015.3 - - - - - - - - -
25/09:30am 24.3 SE 20 27 1015.3 - - - - - - - - -
25/09:00am 24.9 ESE 22 39 1014.9 - - - - - - - - -
25/08:57am 24.3 ESE 23 36 1014.9 - - - - - - - - -
25/08:30am 24.0 ESE 21 25 1014.9 - - - - - - - - -
25/08:13am 24.1 SE 24 33 1014.8 - - - - - - - - -
25/08:00am 24.1 SE 24 23 1014.5 - - - - - - - - -
25/07:30am 24.7 SE 25 29 1014.3 - - - - - - - - -
25/07:00am 25.0 SE 24 29 1013.6 - - - - - - - - -
25/06:30am 24.3 SE 24 30 1013.5 - - - - - - - - -
25/06:00am 23.3 ESE 27 30 1013.2 - - - - - - - - -
25/05:39am 24.6 ESE 17 32 1013.1 - - - - - - - - -
25/05:30am 25.1 ESE 20 24 1013.0 - - - - - - - - -
25/05:00am 24.9 SE 25 27 1012.7 - - - - - - - - -
25/04:30am 25.2 SE 23 27 1012.8 - - - - - - - - -
25/04:00am 25.2 SE 21 27 1012.8 - - - - - - - - -
25/03:30am 25.0 SSE 22 25 1013.0 - - - - - - - - -
25/03:00am 25.3 SE 22 27 1013.0 - - - - - - - - -
25/02:30am 25.2 SE 19 26 1013.3 - - - - - - - - -
25/02:00am 24.4 SE 21 26 1013.9 - - - - - - - - -
25/01:44am 23.9 SE 22 32 1014.0 - - - - - - - - -
25/01:30am 23.8 SE 33 38 1013.9 - - - - - - - - -
25/01:20am 24.3 SE 34 39 1013.8 - - - - - - - - -
25/01:00am 25.5 SE 19 28 1014.3 - - - - - - - - -
25/12:46am 25.2 SE 15 25 1014.4 - - - - - - - - -
25/12:30am 24.1 ESE 15 26 1014.7 - - - - - - - - -
25/12:00am 25.4 SE 24 32 1014.7 - - - - - - - - -

Other Formats:

Comma delimited format used in spreadsheet applications
http://www.bom.gov.au/fwo/IDQ60701/IDQ60701.95288.axf

JavaScript Object Notation format (JSON) in row-major order
http://www.bom.gov.au/fwo/IDQ60701/IDQ60701.95288.json